CAPE
0 0 22 124 129 11 90 64 200 340 96 6 161 0 0 21 39 32 44 41 34 125 85 79 149 138 313 310 358 425 510 528 541 1199 916 974 820 1158 773 966 1599 1369 976 1159
0 0 5 33 67 0 0 47 211 255 203 243 173 18 8 0 45 29 40 18 71 191 172 158 144 194 283 452 552 814 455 666 608 785 996 1019 1354 1066 1735 1218 622 882 1381 1211
0 10 0 2 0 0 0 2 127 273 223 87 127 2 284 50 40 4 55 52 23 183 214 251 297 220 151 414 654 789 868 900 889 1041 796 877 1243 1347 708 1290 754 527 1126 1690
10 6 0 0 0 0 0 15 30 85 69 288 21 0 0 453 102 12 12 53 108 125 300 302 292 320 235 320 365 776 973 1071 1040 1055 910 961 981 758 1114 609 477 621 691 653
0 0 29 0 0 0 0 0 0 0 32 260 141 283 32 468 342 32 13 42 60 226 175 297 143 189 362 569 624 802 765 935 1081 1130 1159 1081 1144 1114 881 519 123 0 209 1588
0 0 0 51 0 0 0 0 0 0 8 32 241 197 102 385 524 428 179 86 68 140 239 285 374 279 308 445 720 1152 1489 1116 1320 1760 1646 899 623 738 584 463 113 45 481 745
0 0 0 0 0 0 0 0 0 0 0 0 0 197 309 33 0 280 20 280 158 68 129 381 253 248 560 463 567 910 783 27 831 1223 1274 980 1272 893 794 787 570 397 236 259
0 0 0 0 0 0 0 0 0 1 0 4 1 250 455 669 542 547 627 720 431 163 99 122 339 408 660 850 1283 1272 773 378 990 1304 577 60 7 0 0 0 0 0 0 0
0 0 0 8 0 0 0 0 0 0 0 0 0 558 899 784 469 380 243 706 865 762 812 1200 1405 1407 1031 790 520 420 319 241 67 41 64 7 0 0 1 0 0 0 0 0
0 0 0 0 0 0 0 0 0 0 0 0 1 120 66 762 670 1338 1391 1211 971 600 531 561 363 139 298 26 2 0 0 0 0 56 0 0 0 0 0 2 36 13 16 15
0 0 0 0 0 0 0 0 0 0 0 3 2 321 973 833 1014 1282 632 559 300 196 9 1 0 0 0 0 0 0 0 0 0 0 0 0 0 0 0 0 0 0 0 0
0 0 0 0 0 0 0 0 0 0 0 0 0 189 980 1543 1348 1023 94 7 3 3 3 5 3 0 0 0 0 0 0 0 0 0 0 0 0 0 0 0 0 0 0 0
0 0 0 0 0 0 0 0 0 0 0 0 4 362 1492 1523 1234 688 167 4 1 0 0 0 0 0 0 0 0 0 0 0 0 0 0 0 0 0 0 0 0 0 0 0
0 0 0 0 27 20 0 0 0 0 0 0 2 1051 1490 1211 724 361 19 3 3 0 0 0 0 0 0 0 0 0 0 0 0 0 0 0 0 0 0 0 0 0 0 0
0 0 0 0 23 1 2 0 0 0 0 0 42 5 1252 874 228 36 2 0 0 0 0 0 0 0 0 0 0 0 0 0 0 0 0 0 0 0 0 0 0 0 0 0
0 0 0 29 4 10 7 6 0 0 0 0 0 398 1089 538 48 0 0 0 0 0 0 0 0 0 0 0 0 0 0 0 0 0 0 0 0 0 0 0 0 0 0 0
0 2 38 120 64 11 0 1 1 0 0 0 0 854 902 442 209 177 25 0 0 0 0 0 0 0 0 0 0 0 0 0 0 0 0 0 0 0 0 0 0 0 0 0
138 339 123 102 0 72 220 17 1 14 0 0 0 10 939 605 312 203 15 0 0 0 0 0 0 0 0 0 0 0 0 0 0 0 0 0 0 0 0 0 0 0 0 0
133 161 153 28 7 87 6 0 0 0 189 26 13 74 635 585 335 24 0 0 0 0 0 0 0 0 0 0 0 0 0 0 0 0 0 0 0 0 0 0 0 0 0 0
91 136 73 32 211 29 1 0 0 0 23 1 104 130 224 221 288 73 0 0 0 0 0 0 0 0 0 0 0 0 0 0 0 0 0 0 0 0 5 4 16 11 11 17
33 43 2 5 68 56 67 4 0 0 186 11 39 133 204 209 182 20 0 0 0 0 0 0 0 0 0 0 0 0 0 0 0 1 7 5 13 20 29 15 32 29 20 9
109 75 146 140 181 200 1 0 97 186 29 0 5 18 144 193 167 64 0 0 0 0 0 0 0 0 0 0 0 0 8 9 7 16 16 16 19 7 16 16 20 20 5 22
99 281 44 0 3 0 11 120 18 2 1 0 0 0 22 221 88 3 0 0 0 0 0 0 0 0 0 0 1 9 15 21 18 14 11 9 0 14 40 79 46 30 15 0
0 191 26 123 30 50 13 0 0 0 0 0 0 0 0 43 212 104 15 0 0 0 0 0 0 0 0 0 13 16 27 43 28 18 11 13 10 28 68 54 44 35 5 6
70 61 4 47 142 37 0 0 0 0 0 0 0 0 0 0 43 116 38 36 28 0 0 0 0 0 0 7 51 65 100 138 23 49 31 14 38 26 32 62 47 12 18 19
23 10 13 154 183 80 43 3 0 0 0 0 0 0 0 6 28 130 107 141 54 0 0 3 33 35 79 128 153 195 321 285 128 83 27 28 23 70 52 20 0 1 0 0
CIN
-0 -0 -20 -12 -32 -66 -37 -63 -65 -19 -28 -8 -28 -0 -0 -3 -2 -3 -1 -153 -3 -36 -31 -25 -18 -18 -33 -24 -12 -13 -2 -11 -14 -3 -15 -7 -5 -6 -16 -35 -10 -5 -8 -2
-0 -0 -5 -35 -65 -0 -0 -72 -11 -38 -8 -54 -63 -148 -30 -0 -24 -3 -83 -4 -92 -35 -23 -13 -15 -7 -2 -2 -3 -2 -9 -12 -26 -15 -3 -9 -5 -21 -6 -19 -35 -52 -13 -9
-0 -4 -0 -1 -0 -1 -0 -2 -11 -18 -68 -246 -110 -60 -63 -24 -1 -2 -92 -99 -61 -32 -25 -9 -8 -15 -24 -27 -13 -10 -11 -23 -29 -9 -4 -10 -14 -16 -14 -12 -65 -65 -29 -4
-41 -9 -0 -0 -0 -0 -0 -5 -2 -42 -38 -34 -128 -12 -10 -40 -49 -172 -147 -57 -67 -45 -10 -13 -5 -7 -35 -31 -39 -25 -23 -24 -32 -21 -10 -2 -9 -9 -10 -62 -80 -82 -35 -27
-0 -0 -103 -0 -0 -0 -0 -0 -0 -0 -3 -130 -240 -21 -178 -47 -25 -199 -215 -69 -42 -22 -25 -26 -23 -21 -6 -8 -19 -44 -48 -41 -26 -31 -21 -5 -3 -10 -26 -54 -113 -0 -114 -12
-0 -2 -0 -134 -0 -0 -0 -0 -0 -0 -3 -2 -4 -63 -54 -68 -52 -43 -25 -48 -37 -12 -19 -4 -10 -14 -10 -6 -8 -20 -24 -65 -13 -3 -10 -19 -20 -26 -27 -29 -26 -20 -37 -30
-0 -0 -0 -0 -0 -0 -0 -0 -0 -0 -0 -0 -0 -14 -15 -219 -0 -107 -29 -13 -26 -43 -20 -7 -14 -28 -8 -33 -24 -30 -76 -24 -26 -10 -12 -60 -29 -51 -42 -32 -34 -48 -60 -74
-0 -0 -0 -0 -0 -0 -0 -0 -0 -2 -0 -65 -20 -12 -12 -16 -31 -28 -10 -9 -12 -25 -53 -43 -29 -25 -26 -28 -15 -14 -50 -52 -8 -39 -120 -202 -28 -0 -0 -0 -0 -20 -0 -0
-0 -0 -0 -5 -0 -0 -0 -0 -0 -0 -0 -0 -0 -51 -33 -55 -74 -74 -63 -82 -60 -59 -143 -120 -46 -25 -73 -117 -100 -91 -117 -119 -174 -197 -150 -24 -0 -0 -42 -0 -0 -0 -0 -0
-0 -0 -0 -0 -0 -0 -0 -0 -0 -0 -0 -0 -1 -21 -5 -17 -26 -32 -99 -146 -180 -213 -216 -199 -268 -275 -187 -196 -196 -0 -0 -0 -0 -63 -0 -0 -0 -0 -64 -113 -194 -269 -234 -211
-0 -0 -0 -0 -0 -0 -0 -0 -0 -0 -0 -4 -3 -23 -23 -4 -2 -113 -232 -217 -295 -326 -415 -78 -0 -0 -0 -0 -0 -0 -0 -0 -0 -0 -0 -0 -0 -0 -0 -0 -0 -0 -0 -0
-0 -0 -0 -0 -0 -0 -0 -0 -0 -0 -0 -0 -0 -22 -8 -10 -27 -170 -379 -313 -0 -0 -0 -0 -0 -0 -0 -0 -0 -0 -0 -0 -0 -0 -0 -0 -0 -0 -0 -0 -0 -0 -0 -0
-0 -0 -0 -0 -0 -0 -0 -0 -0 -0 -0 -0 -7 -42 -7 -72 -84 -120 -259 -0 -0 -0 -0 -0 -0 -0 -0 -0 -0 -0 -0 -0 -0 -0 -0 -0 -0 -0 -0 -0 -0 -0 -0 -0
-0 -0 -0 -0 -16 -17 -16 -0 -0 -0 -0 -0 -3 -39 -4 -41 -144 -213 -316 -0 -0 -0 -0 -0 -0 -0 -0 -0 -0 -0 -0 -0 -0 -0 -0 -0 -0 -0 -0 -0 -0 -0 -0 -0
-0 -0 -0 -0 -12 -2 -4 -0 -0 -0 -0 -0 -21 -8 -18 -40 -151 -245 -0 -0 -0 -0 -0 -0 -0 -0 -0 -0 -0 -0 -0 -0 -0 -0 -0 -0 -0 -0 -0 -0 -0 -0 -0 -0
-0 -0 -0 -6 -63 -33 -34 -83 -0 -0 -0 -0 -0 -9 -24 -75 -238 -0 -0 -0 -0 -0 -0 -0 -0 -0 -0 -0 -0 -0 -0 -0 -0 -0 -0 -0 -0 -0 -0 -0 -0 -0 -0 -0
-0 -4 -10 -15 -23 -64 -0 -6 -13 -0 -0 -0 -0 -9 -23 -49 -56 -143 -176 -0 -0 -0 -0 -0 -0 -0 -0 -0 -0 -0 -0 -0 -0 -0 -0 -0 -0 -0 -0 -0 -0 -0 -0 -0
-4 -7 -52 -52 -0 -4 -9 -66 -4 -30 -1 -0 -0 -31 -8 -56 -49 -54 -23 -0 -0 -0 -0 -0 -0 -0 -0 -0 -0 -0 -0 -0 -0 -0 -0 -0 -0 -0 -0 -0 -0 -0 -0 -0
-7 -13 -6 -20 -30 -73 -195 -0 -0 -0 -36 -66 -99 -54 -3 -1 -26 -45 -0 -0 -0 -0 -0 -0 -0 -0 -0 -0 -0 -0 -0 -0 -0 -0 -0 -0 -0 -0 -0 -0 -0 -0 -0 -0
-30 -55 -23 -101 -11 -64 -9 -0 -0 -0 -16 -21 -87 -64 -13 -3 -2 -22 -0 -0 -0 -0 -0 -0 -0 -0 -0 -0 -0 -0 -0 -0 -0 -0 -0 -0 -0 -0 -3 -4 -3 -8 -12 -4
-25 -67 -92 -39 -15 -39 -26 -54 -0 -0 -33 -75 -57 -39 -11 -6 -34 -123 -0 -0 -0 -0 -0 -0 -0 -0 -0 -0 -0 -0 -0 -0 -0 -0 -0 -1 -1 -1 -1 -4 -3 -10 -12 -8
-24 -15 -13 -3 -12 -13 -23 -0 -17 -62 -60 -0 -31 -43 -6 -20 -34 -52 -0 -0 -0 -0 -0 -0 -0 -0 -0 -0 -0 -0 -1 -1 -1 -1 -2 -2 -2 -3 -12 -13 -15 -9 -16 -13
-37 -10 -231 -0 -5 -0 -41 -12 -51 -6 -3 -0 -0 -0 -1 -20 -27 -39 -0 -0 -0 -0 -0 -0 -0 -0 -0 -0 -1 -1 -1 -2 -2 -3 -3 -2 -0 -16 -18 -16 -14 -13 -8 -0
-0 -21 -6 -18 -45 -42 -8 -14 -0 -0 -0 -0 -0 -0 -0 -2 -5 -13 -17 -0 -0 -0 -0 -0 -0 -0 -0 -0 -1 -2 -1 -0 -2 -3 -2 -2 -16 -13 -11 -22 -11 -4 -18 -15
-48 -25 -40 -17 -8 -16 -0 -0 -0 -0 -0 -0 -0 -0 -0 -0 -6 -24 -36 -33 -44 -0 -0 -0 -0 -0 -0 -1 -1 -1 -0 -1 -6 -4 -1 -5 -3 -5 -5 -7 -6 -13 -14 -20
-14 -11 -1 -6 -18 -14 -52 -56 -0 -0 -0 -0 -0 -0 -0 -2 -5 -10 -23 -11 -19 -0 -0 -19 -67 -50 -8 -1 -1 -2 -1 -2 -8 -2 -2 -8 -12 -3 -6 -8 -0 -9 -0 -0
Wind_Speed
17 22 21 11 14 16 19 15 23 23 23 16 16 11 11 18 15 14 13 13 13 13 12 11 14 13 16 18 19 19 8 7 7 7 7 7 9 8 16 17 18 14 11 11
24 25 21 10 8 12 11 19 16 14 16 8 7 12 2 12 13 11 14 11 14 14 12 12 11 12 14 13 12 10 11 4 6 7 7 10 14 13 18 13 13 23 23 6
29 20 20 11 6 3 21 4 7 9 7 13 4 18 22 4 9 8 11 13 13 14 15 13 13 13 13 13 13 14 12 8 8 6 5 9 13 16 18 14 20 26 8 11
26 29 22 26 27 25 27 21 10 5 10 14 19 14 21 21 5 8 10 7 13 12 14 13 15 16 15 14 14 12 9 7 5 2 6 8 9 13 16 18 20 21 23 23
31 20 27 22 27 24 30 21 19 26 18 7 2 16 4 5 12 12 12 7 7 10 9 12 13 13 12 13 13 11 11 11 8 4 1 10 10 16 17 21 20 18 30 26
25 25 21 24 27 21 27 23 22 27 26 32 13 14 9 1 7 22 17 6 6 6 6 8 7 7 7 7 3 5 5 3 5 4 8 11 14 16 18 19 22 26 19 24
28 25 21 22 28 23 22 24 23 22 23 25 25 12 11 4 10 12 40 10 3 1 2 3 4 3 2 6 6 5 6 9 23 8 9 14 14 16 18 20 21 24 29 27
23 26 17 15 20 23 19 24 28 29 26 21 24 16 6 8 9 10 7 5 2 4 4 8 2 3 4 8 9 9 8 7 8 9 11 12 12 15 17 18 21 22 24 26
30 32 29 15 18 22 26 24 28 36 37 36 17 13 8 5 6 10 10 13 10 10 6 3 5 5 6 10 11 10 8 8 10 12 11 13 13 15 17 17 19 22 25 27
26 33 25 8 16 21 28 28 28 26 34 34 26 14 21 7 7 8 11 11 8 7 6 3 5 7 8 10 12 12 12 12 14 14 17 18 19 20 20 21 20 21 24 27
21 25 28 19 17 25 21 28 32 31 30 28 29 20 3 4 4 8 10 10 9 7 5 5 6 9 10 11 13 15 17 17 19 20 20 21 21 22 23 23 22 24 27 29
18 26 28 25 16 17 25 30 26 30 37 33 33 20 9 4 7 9 10 10 9 9 8 8 9 10 11 13 14 17 18 18 18 20 21 18 22 22 24 26 26 27 29 30
16 22 28 29 17 18 23 28 27 28 27 30 30 17 5 7 11 12 11 10 9 9 9 10 13 13 14 15 16 16 15 16 18 20 23 24 27 28 27 30 31 31 33 36
17 24 26 27 24 23 22 24 28 27 32 31 32 10 9 11 12 12 13 11 10 10 10 10 12 13 13 14 15 17 17 17 18 23 22 26 24 25 28 30 31 31 34 37
19 26 32 30 23 23 24 20 15 19 25 28 20 32 8 10 12 12 10 9 9 9 9 9 10 10 10 11 11 12 13 15 17 19 20 23 21 22 26 29 30 33 36 39
20 24 26 28 24 23 22 16 18 16 18 24 29 26 6 7 5 5 7 9 9 8 8 7 7 9 10 12 13 15 16 17 19 20 20 21 23 25 28 31 34 37 40 42
11 15 24 26 18 20 17 22 22 23 18 19 22 12 10 9 3 11 9 9 9 8 7 8 8 10 12 14 16 17 18 19 20 21 22 24 26 28 31 33 35 37 40 43
25 15 16 18 24 19 20 18 19 20 20 20 22 19 14 10 14 9 7 9 10 8 8 9 11 12 14 15 17 19 19 21 23 24 26 27 28 30 30 32 35 38 40 44
15 19 26 26 17 15 25 24 19 19 19 21 20 17 12 12 8 10 11 10 10 9 9 11 13 14 17 17 18 21 23 24 25 27 28 28 29 32 33 36 37 38 38 43
12 16 27 20 26 22 19 22 22 21 17 19 18 17 14 14 14 9 7 9 9 9 10 11 13 15 17 19 21 23 24 26 27 28 29 30 30 32 33 35 34 34 36 42
18 25 28 30 26 20 17 10 20 21 16 16 16 16 14 16 14 9 9 10 10 11 13 15 17 19 19 20 21 24 25 26 27 27 29 30 31 32 31 32 31 36 37 41
16 21 22 24 27 27 28 29 22 14 13 14 14 13 13 11 11 10 9 11 12 14 15 17 18 19 19 19 21 23 24 25 27 28 29 29 31 31 31 33 34 34 34 38
17 18 9 13 19 11 17 12 14 15 15 15 16 16 13 9 10 9 10 11 13 15 16 18 19 20 20 21 21 24 25 26 27 29 31 31 32 31 32 30 31 31 33 41
22 20 17 16 9 6 10 14 15 15 15 15 16 17 17 13 11 7 9 10 14 16 17 19 20 21 23 23 23 25 27 28 29 31 31 31 31 31 29 27 27 29 38 39
9 11 16 14 8 11 9 11 12 13 15 16 17 17 17 17 15 11 11 13 16 17 18 20 23 24 24 23 23 25 28 29 31 31 32 31 31 32 34 30 30 31 32 32
9 11 14 16 11 14 12 13 14 14 14 14 14 16 15 14 15 10 13 12 13 15 15 16 18 18 21 23 25 26 27 27 28 31 32 33 33 33 32 31 34 30 27 30
Wind_Direction
149 193 191 359 7 63 142 83 131 161 160 133 122 96 96 129 115 107 101 107 111 109 98 84 95 97 112 124 133 140 121 117 107 91 85 44 94 12 312 289 290 323 345 349
218 231 264 341 51 27 118 189 144 81 134 37 311 292 343 121 123 108 115 94 118 112 106 99 93 97 112 116 127 132 141 111 120 111 105 337 320 326 301 330 331 291 257 174
245 292 287 309 358 13 229 6 51 10 13 334 337 310 278 280 123 97 122 118 117 121 118 112 116 117 116 122 135 144 144 134 134 122 355 338 321 315 305 337 319 269 243 294
276 260 294 279 276 282 277 301 335 1 323 310 297 329 261 212 256 118 129 111 132 125 124 121 125 133 133 132 133 137 140 132 129 100 337 338 338 328 329 321 310 311 294 296
268 287 282 296 281 297 285 312 303 288 307 351 204 339 51 160 253 156 151 137 137 137 134 134 135 132 135 139 132 131 146 155 143 138 359 324 325 319 322 317 312 308 284 286
284 291 297 287 288 298 292 310 298 293 294 288 310 310 304 287 169 183 255 158 145 142 151 146 142 138 125 127 51 101 124 264 105 46 337 315 319 321 320 325 319 302 312 317
280 282 289 291 283 293 289 299 293 294 291 296 311 291 311 139 166 166 205 133 152 157 299 241 272 229 324 9 350 358 21 353 234 352 340 333 336 332 328 324 323 316 309 315
284 285 276 282 285 282 289 286 282 283 289 311 325 324 320 85 115 141 21 124 220 270 285 274 198 210 307 340 347 31 76 97 45 20 349 353 349 344 338 337 327 327 316 314
281 283 292 265 281 277 281 283 282 281 285 292 302 309 336 336 330 325 324 332 347 322 351 347 73 36 349 346 344 354 357 3 6 4 7 352 347 341 335 347 339 324 318 313
281 285 301 293 295 285 275 280 292 282 282 287 293 291 287 277 314 1 360 359 4 348 339 331 341 345 342 335 339 350 350 344 337 333 328 327 331 327 330 329 339 325 319 314
283 276 280 289 286 284 281 280 277 282 282 286 289 298 325 246 311 342 345 2 359 358 344 334 335 338 344 333 333 333 334 331 328 327 326 329 327 327 331 328 330 328 321 320
283 282 280 279 287 287 281 277 283 274 274 280 284 303 336 348 315 327 327 335 342 345 337 325 324 326 330 326 327 326 327 330 334 337 338 341 339 338 330 328 318 319 320 320
289 286 280 279 283 292 284 281 278 286 285 282 280 286 350 331 323 321 324 331 330 327 324 319 313 314 317 317 322 323 327 329 334 331 333 328 320 319 321 318 311 315 316 311
291 287 282 277 293 293 304 282 274 276 277 282 287 289 300 309 306 315 317 320 324 326 324 317 314 317 321 319 321 320 320 325 326 315 320 312 321 323 320 322 322 327 320 320
281 281 279 277 286 291 286 299 287 278 277 280 290 299 264 298 293 298 316 326 332 330 326 326 323 324 329 331 332 338 336 333 333 331 327 323 337 333 330 329 329 326 324 320
277 273 274 279 292 288 282 288 288 306 304 294 294 317 349 298 294 301 321 331 331 332 334 337 338 336 332 332 332 329 331 331 330 330 332 335 334 331 329 327 326 326 325 323
263 270 272 270 296 293 282 282 289 286 298 313 307 337 347 307 268 307 308 323 333 340 339 333 330 328 327 325 322 321 324 326 327 326 328 329 329 328 327 327 327 327 326 325
246 287 281 276 279 282 304 319 313 300 310 316 316 324 341 313 321 354 20 359 342 339 333 330 327 324 322 324 322 323 323 323 321 320 322 325 325 325 326 327 328 328 328 328
277 270 269 264 195 295 293 291 316 317 320 322 318 328 343 342 355 327 331 348 344 338 334 328 325 323 320 320 320 318 317 318 319 319 322 325 326 325 325 324 324 328 328 329
313 273 262 293 288 304 299 287 305 324 321 337 332 326 327 329 308 312 349 360 350 341 336 329 324 321 318 318 318 317 317 318 318 321 323 325 325 324 324 325 326 329 328 328
287 284 278 266 275 301 335 337 314 320 330 350 353 346 340 331 335 347 341 339 342 339 332 328 324 319 319 320 320 318 319 319 322 325 326 326 327 326 328 328 329 329 329 330
295 275 276 280 278 280 297 309 305 351 1 358 357 352 351 353 358 356 348 341 338 333 332 328 326 323 323 322 322 320 320 323 324 324 326 327 329 329 330 328 329 331 333 334
311 304 340 325 299 319 309 18 10 357 351 352 346 348 1 12 358 354 347 342 336 333 331 329 325 323 323 322 322 320 321 324 324 325 324 326 327 328 328 329 330 334 336 335
284 299 328 331 357 48 359 351 353 356 351 356 355 350 349 346 358 357 357 349 341 334 330 329 326 322 320 320 320 320 320 320 322 323 325 327 327 329 331 333 336 337 335 336
9 17 345 341 11 359 10 11 14 10 357 351 351 352 350 347 348 4 357 347 339 335 332 329 324 320 318 319 319 319 320 322 321 325 326 327 328 329 326 335 339 341 345 347
7 11 4 350 15 346 9 356 0 4 5 10 5 360 359 357 356 7 355 1 356 350 352 346 340 334 326 321 320 321 324 326 326 326 327 323 318 324 329 337 338 341 345 346